Tracking 32138 objects as of 8-Nov-2025
HD Live streaming from Space Station
objects crossing your sky now

COSMOS 660

Track COSMOS 660 now!
10-day predictions
COSMOS 660 is classified as:


NORAD ID: 7337
Int'l Code: 1974-044A
Perigee: 373.2 km
Apogee: 999.4 km
Inclination: 82.9 °
Period: 98.3 minutes
Semi major axis: 7057 km
RCS: 2.9855 m2 (large)
Launch date: June 18, 1974
Source: Commonwealth of Independent States (former USSR) (CIS)
Launch site: PLESETSK MISSILE AND SPACE COMPLEX (PKMTR)
Your satellite tracking list
Your tracking list is empty




NASA's NSSDC Master Catalog

Two Line Element Set (TLE):
1  7337U 74044A   25312.11913740  .00008142  00000-0  33898-3 0  9997
2  7337  82.9355 100.2355 0443603   3.5600 356.8580 14.64349220609223
Source of the keplerian elements: AFSPC